[[{"header":{"parameterUnit":"m.s-1","parameterCategory":1,"la1":30.2991,"la2":30.254,"lo1":-89.0895,"lo2":-89.0444,"dy":0.0017,"dx":0.0017,"nx":28,"ny":28,"refTime":"2024-08-14T21:00:00:Z","depth":0,"parameterNumber":2,"parameterNumberName":"U-component_of_WINDS"},"data":[0,0,0,0,0,0,0,0,0,0,0,0,0,0,0,0,0,0,0,0,0,0,0,0,0,0,0,0,0,0,0,0,0,0,0,0,0,0,0,0,0,0,0,0,0,0,0,0,0,0,0,0,0,0,0,0,0,0,2.4104,2.4103,0,2.4045,2.4044,2.4043,2.3885,2.3881,2.3878,2.3875,2.3815,2.3817,2.3819,0,0,0,0,0,0,0,0,0,0,0,0,0,2.4079,2.408,2.4104,2.4103,2.4102,2.4045,2.4044,2.4043,2.3885,2.3881,2.3877,2.3873,2.3815,2.3817,2.3819,0,0,0,0,0,0,0,0,0,0,0,0,0,2.4062,2.408,2.4104,2.4017,2.4008,2.4045,2.4044,2.4043,2.3886,2.3881,2.3876,2.3871,2.3814,2.3817,2.3819,2.3936,0,0,2.3826,2.3827,0,0,0,0,0,0,0,0,2.4063,2.4063,2.403,2.4023,2.4013,2.3967,2.4013,2.4007,2.3887,2.3933,2.3874,2.3869,2.387,2.3868,2.3868,2.3933,2.3931,2.3827,2.3828,2.3829,2.383,0,0,0,0,0,0,0,2.4064,2.4065,2.408,2.403,2.402,2.398,2.3972,2.4011,2.3931,2.3928,2.3916,2.3912,2.3864,2.3866,2.3865,2.393,2.3827,2.3829,2.383,2.3831,2.4083,2.4088,0,0,0,0,0,0,2.4078,2.4067,2.4082,2.4079,2.4026,2.3984,2.3975,2.3987,2.393,2.3916,2.3916,2.3904,2.3864,2.3863,2.3863,2.3992,2.3829,2.3831,2.3833,2.4078,2.4085,2.409,0,0,0,0,0,0,2.4078,2.4081,2.4085,2.4069,2.4067,2.399,2.4004,2.3988,2.3989,2.3921,2.3905,2.3932,2.386,2.3859,2.3918,2.3988,2.3832,2.3835,2.4072,2.408,2.4087,2.4256,0,0,0,0,0,0,2.4078,2.4082,2.4127,2.4072,2.4068,2.4142,2.4009,2.3991,2.3994,2.3978,2.3932,2.3919,2.3856,2.3915,2.392,2.3989,2.3837,2.4065,2.4076,2.4085,2.4243,2.4268,2.429,0,0,0,0,0,2.4078,2.4178,2.413,2.4132,2.4122,2.4147,2.4145,2.4069,2.4,2.4043,2.3998,2.3921,2.398,2.3922,2.3927,2.3997,2.4061,2.4073,2.4084,2.4233,2.4263,2.4289,0,0,0,0,0,0,2.4245,2.4169,2.4115,2.42,2.4181,2.412,2.4172,2.4105,2.4105,2.4091,2.3997,2.3988,2.4059,2.4034,2.3971,2.4105,2.4007,2.402,2.4119,2.4147,2.417,2.4174,2.3839,0,0,0,0,0,2.4291,2.4318,2.425,2.4332,2.4324,2.4251,2.4258,2.4201,2.4178,2.4169,2.4129,2.4109,2.4122,2.4133,2.4142,2.4239,2.4225,2.4289,2.4312,2.4331,2.4344,2.4389,2.4415,2.4129,2.4129,2.4129,0,0,2.4388,2.435,2.4373,2.4364,2.4342,2.437,2.4245,2.4281,2.43,2.4175,2.4227,2.4196,2.4168,2.4245,2.4277,2.4226,2.4419,2.4346,2.4362,2.4364,2.4404,2.4431,2.4455,2.4137,2.4136,2.4134,0,0,2.4579,2.4554,2.4616,2.4596,2.4564,2.4514,2.4529,2.4477,2.4452,2.4502,2.4407,2.4428,2.4455,2.4437,2.4431,2.461,2.4537,2.4616,2.4736,2.4781,2.4804,2.4823,2.4884,2.4907,2.4629,2.4629,2.4629,0,2.4703,2.4742,2.4658,2.4699,2.4696,2.4582,2.4644,2.4629,2.4602,2.4603,2.4546,2.4573,2.4546,2.4615,2.4659,2.4659,2.4672,2.4621,2.4807,2.4826,2.4843,2.49,2.4923,2.4638,2.4637,2.4636,2.4636,0,2.4895,2.4923,2.4978,2.4952,2.4956,2.5008,2.493,2.4944,2.4886,2.4841,2.4891,2.4855,2.4852,2.4864,2.481,2.4925,2.4894,2.4824,2.4723,2.4881,2.4933,2.4954,2.4652,2.4649,2.4646,2.4644,0,0,2.5191,2.5115,2.5136,2.5121,2.5076,2.5095,2.514,2.5136,2.5148,2.5133,2.5167,2.5189,2.5123,2.5117,2.5058,2.5098,2.5237,2.5022,2.502,2.5061,2.5358,2.541,2.5437,2.5189,2.5193,2.5196,2.536,0,2.5368,2.544,2.5364,2.5451,2.5474,2.5364,2.5402,2.5378,2.5336,2.5349,2.5302,2.5319,2.5231,2.5226,2.5261,2.5214,2.5296,2.5201,2.5218,2.5219,2.5227,2.5464,2.552,2.5677,2.538,2.5383,2.5386,0,2.5585,2.5577,2.5666,2.561,2.5617,2.5653,2.5641,2.5655,2.5624,2.559,2.5581,2.5509,2.5547,2.545,2.55,2.5437,2.5439,2.5417,2.5421,2.5418,2.5312,2.5467,2.5725,2.5748,2.5417,2.5415,2.5412,0,2.5788,2.58,2.5853,2.5844,2.5782,2.5809,2.5784,2.5747,2.5748,2.5738,2.5737,2.5732,2.5729,2.5726,2.5653,2.559,2.5711,2.5609,2.5683,2.5685,2.5713,2.5712,2.5974,2.5718,2.5718,2.5717,2.5717,0,2.5993,2.6052,2.5943,2.5976,2.6037,2.5948,2.601,2.5974,2.5942,2.5965,2.587,2.5893,2.5797,2.5809,2.5753,2.5801,2.5801,2.5774,2.5758,2.5781,2.5784,2.5781,2.5767,2.5723,2.5722,2.5721,2.572,0,2.6231,2.6161,2.6211,2.6146,2.6131,2.6179,2.6122,2.6149,2.61,2.613,2.6132,2.6055,2.6064,2.5991,2.5988,2.595,2.6023,2.599,2.6034,2.6023,2.61,2.6093,2.6367,2.6397,2.6125,2.6127,2.613,0,2.6366,2.6407,2.6345,2.6353,2.6332,2.6347,2.6346,2.626,2.6263,2.6228,2.6258,2.626,2.6256,2.6275,2.6219,2.6214,2.6178,2.6275,2.6177,2.6198,2.6177,2.6174,2.6177,2.6295,2.6299,2.6301,2.6304,0,2.6611,2.6573,2.6576,2.6566,2.6567,2.6555,2.6537,2.6549,2.6454,2.6462,2.647,2.6467,2.6461,2.6462,2.6446,2.6419,2.6345,2.6334,2.6351,2.6375,2.6398,2.6383,2.6087,2.6329,2.6326,2.6324,2.6323,2.6322,2.6799,2.6829,2.6789,2.6794,2.6771,2.6755,2.6776,2.6728,2.6732,2.672,2.6668,2.6685,2.6648,2.6618,2.6598,2.6608,2.6561,2.6586,2.6592,2.6599,2.6612,2.6397,2.6605,2.6604,2.6603,2.6603,2.6602,0,2.7037,2.7005,2.7011,2.6986,2.699,2.6919,2.6894,2.6901,2.6916,2.6888,2.6885,2.6892,2.6891,2.6834,2.6826,2.6845,2.681,2.6845,2.6842,2.6837,2.6655,2.6641,2.6873,2.6873,2.6873,2.6873,2.6873,2.6873,2.7161,2.7207,2.7164,2.7197,2.7164,2.7178,2.7169,2.7153,2.713,2.7141,2.714,2.7101,2.706,2.7048,2.7044,2.7026,2.7027,2.7073,2.7045,2.6876,2.685,2.6825,2.681,2.7075,2.7075,2.7225,2.7226,2.7227]},{"header":{"parameterUnit":"m.s-1","parameterCategory":1,"la1":30.2991,"la2":30.254,"lo1":-89.0895,"lo2":-89.0444,"dy":0.0017,"dx":0.0017,"nx":28,"ny":28,"refTime":"2024-08-14T21:00:00:Z","depth":0,"parameterNumber":3,"parameterNumberName":"V-component_of_WINDS"},"data":[0,0,0,0,0,0,0,0,0,0,0,0,0,0,0,0,0,0,0,0,0,0,0,0,0,0,0,0,0,0,0,0,0,0,0,0,0,0,0,0,0,0,0,0,0,0,0,0,0,0,0,0,0,0,0,0,0,0,1.536,1.5362,0,1.5513,1.5515,1.5517,1.5538,1.5536,1.5535,1.5534,1.5693,1.5699,1.5704,0,0,0,0,0,0,0,0,0,0,0,0,0,1.5087,1.5092,1.536,1.5362,1.5364,1.5513,1.5515,1.5517,1.5538,1.5536,1.5535,1.5533,1.5691,1.5698,1.5705,0,0,0,0,0,0,0,0,0,0,0,0,0,1.5219,1.5094,1.536,1.5392,1.5397,1.5512,1.5515,1.5518,1.5538,1.5536,1.5534,1.5532,1.5689,1.5697,1.5706,1.5801,0,0,1.5731,1.5735,0,0,0,0,0,0,0,0,1.5212,1.5229,1.5386,1.539,1.5396,1.5504,1.5477,1.5613,1.5539,1.5485,1.5534,1.5531,1.5632,1.5645,1.5679,1.5808,1.5815,1.5732,1.5737,1.5741,1.5743,0,0,0,0,0,0,0,1.5203,1.5223,1.5421,1.5388,1.5394,1.5399,1.5416,1.5503,1.5569,1.5489,1.5491,1.5509,1.5635,1.5671,1.5683,1.5817,1.5732,1.5739,1.5744,1.5748,1.6028,1.603,0,0,0,0,0,0,1.5187,1.5215,1.5416,1.5425,1.5296,1.5406,1.5424,1.5472,1.5568,1.5581,1.551,1.5509,1.5657,1.5673,1.5688,1.5803,1.5741,1.5749,1.5753,1.6026,1.6028,1.6031,0,0,0,0,0,0,1.5181,1.5205,1.541,1.5321,1.5347,1.5413,1.5466,1.5476,1.5512,1.5584,1.5596,1.5535,1.5656,1.5677,1.5771,1.5809,1.5752,1.576,1.6023,1.6026,1.603,1.6036,0,0,0,0,0,0,1.5173,1.5203,1.524,1.5321,1.5352,1.549,1.5468,1.548,1.5526,1.5525,1.561,1.5622,1.5656,1.5759,1.578,1.582,1.5766,1.602,1.6024,1.6029,1.6032,1.6039,1.6045,0,0,0,0,0,1.5164,1.5237,1.5242,1.5266,1.5399,1.5493,1.551,1.5547,1.5529,1.5566,1.5612,1.562,1.5801,1.5768,1.5792,1.5835,1.6017,1.6023,1.6028,1.603,1.6038,1.6045,0,0,0,0,0,0,1.5161,1.5249,1.5255,1.5357,1.5416,1.5496,1.5545,1.5555,1.5622,1.5619,1.5663,1.5682,1.5774,1.5814,1.5776,1.593,1.5908,1.5918,1.5901,1.5909,1.5915,1.5904,1.5773,0,0,0,0,0,1.5171,1.5239,1.5312,1.5395,1.5425,1.5479,1.5521,1.5543,1.5608,1.5634,1.5687,1.575,1.5821,1.5867,1.5937,1.6038,1.6055,1.6079,1.6085,1.609,1.6098,1.6152,1.6163,1.6049,1.6049,1.6049,0,0,1.5195,1.5251,1.5292,1.5396,1.5445,1.5514,1.5501,1.5575,1.5626,1.5646,1.5738,1.5778,1.5851,1.5948,1.5994,1.5985,1.6133,1.6097,1.61,1.6106,1.6159,1.6169,1.6179,1.6053,1.6052,1.6051,0,0,1.5274,1.5323,1.5396,1.5445,1.5518,1.5553,1.557,1.5648,1.5675,1.5767,1.5782,1.5843,1.5966,1.6016,1.6058,1.6149,1.6159,1.6171,1.6204,1.6255,1.6264,1.6272,1.6303,1.6314,1.6179,1.6179,1.6179,0,1.5295,1.5398,1.5433,1.5505,1.555,1.5567,1.5641,1.5687,1.578,1.581,1.5798,1.5949,1.5999,1.6107,1.6129,1.6163,1.6183,1.6162,1.626,1.6268,1.6276,1.6307,1.6318,1.618,1.618,1.618,1.618,0,1.5419,1.549,1.554,1.5626,1.5676,1.5749,1.5794,1.5841,1.5857,1.5893,1.5985,1.6046,1.6127,1.6154,1.6173,1.6264,1.6255,1.6251,1.6229,1.6288,1.6317,1.6329,1.6182,1.6181,1.6181,1.6181,0,0,1.5503,1.5604,1.5622,1.566,1.574,1.5796,1.5868,1.5945,1.5983,1.6045,1.6106,1.6207,1.6202,1.6249,1.6273,1.6318,1.6384,1.6308,1.6311,1.6319,1.6486,1.6488,1.6501,1.639,1.6392,1.6394,1.6479,0,1.559,1.5718,1.5749,1.5859,1.5924,1.594,1.6002,1.6058,1.6092,1.6152,1.6191,1.6261,1.625,1.6278,1.6323,1.6367,1.6418,1.6361,1.6447,1.645,1.6428,1.6517,1.6521,1.6598,1.6491,1.6493,1.6495,0,1.5709,1.5771,1.5886,1.5954,1.5982,1.6038,1.6109,1.6166,1.6229,1.6251,1.6301,1.6319,1.6394,1.6367,1.647,1.643,1.6467,1.6493,1.6497,1.6506,1.6476,1.6528,1.6624,1.6635,1.6513,1.6512,1.651,0,1.5756,1.5869,1.5951,1.5983,1.6066,1.6104,1.614,1.62,1.6243,1.6305,1.6333,1.6403,1.6442,1.6496,1.6532,1.651,1.6631,1.6608,1.6651,1.665,1.6677,1.6675,1.6779,1.6701,1.67,1.67,1.67,0,1.585,1.592,1.5973,1.6024,1.6101,1.6136,1.6212,1.6249,1.6301,1.6359,1.6377,1.6431,1.6476,1.6536,1.6565,1.6644,1.6662,1.6681,1.6688,1.6679,1.6677,1.6704,1.67,1.6703,1.6703,1.6702,1.6701,0,1.5917,1.5956,1.6046,1.6115,1.6133,1.6187,1.6246,1.6296,1.6329,1.6401,1.6421,1.6473,1.6544,1.6585,1.6675,1.6694,1.6782,1.6787,1.6761,1.6764,1.6803,1.6799,1.6929,1.6947,1.6857,1.6858,1.6859,0,1.5974,1.6027,1.61,1.6139,1.6175,1.6238,1.628,1.6316,1.6359,1.6432,1.6472,1.6543,1.6603,1.6715,1.6761,1.6829,1.6836,1.6876,1.6846,1.6835,1.6835,1.6831,1.6836,1.6882,1.6883,1.6883,1.6884,0,1.6071,1.6086,1.6146,1.6212,1.6261,1.6316,1.637,1.6401,1.6444,1.6492,1.6563,1.6609,1.6698,1.6769,1.684,1.6877,1.6888,1.6892,1.6906,1.6898,1.688,1.6888,1.6774,1.689,1.6889,1.6889,1.6888,1.6888,1.6134,1.6181,1.6238,1.6303,1.6347,1.6395,1.6444,1.6482,1.6541,1.6616,1.6633,1.6707,1.6765,1.6861,1.69,1.6959,1.6952,1.6971,1.6976,1.698,1.6981,1.687,1.6972,1.6972,1.6972,1.6972,1.6972,0,1.6231,1.6267,1.6326,1.6399,1.645,1.6453,1.6511,1.6554,1.6618,1.6671,1.6727,1.6807,1.6874,1.6925,1.6993,1.703,1.7036,1.7047,1.7045,1.7052,1.6984,1.6965,1.704,1.704,1.704,1.704,1.704,1.704,1.6287,1.6365,1.6386,1.6485,1.6522,1.6593,1.6626,1.667,1.6712,1.68,1.6855,1.6886,1.6937,1.7009,1.707,1.7083,1.7107,1.7116,1.713,1.7065,1.7058,1.7051,1.7033,1.7121,1.7121,1.7194,1.7194,1.7195]}]]